This is the latest recevied weather packets stored in our database for station/object N7ZAP. If no packets are shown the sender has not sent any weather packets the latest 10 day(s).
| Time | Temp. | Humidity | Pressure | Rain* | Wind** | Luminosity | Snow |
|---|---|---|---|---|---|---|---|
| 1777846219 | 25° C | 24% | 1015.9 hPa | 0 mm | - | - | - |
| 1777845915 | 25.56° C | 24% | 1016.1 hPa | 0 mm | - | - | - |
| 1777845612 | 25° C | 24% | 1016.1 hPa | 0 mm | - | - | - |
| 1777845309 | 25.56° C | 23% | 1016.2 hPa | 0 mm | - | - | - |
| 1777845006 | 25° C | 24% | 1016.2 hPa | 0 mm | - | - | - |
| 1777844704 | 25.56° C | 24% | 1016.3 hPa | 0 mm | - | - | - |
| 1777844400 | 25° C | 26% | 1016.6 hPa | 0 mm | - | - | - |
| 1777844099 | 25° C | 24% | 1016.8 hPa | 0 mm | - | - | - |
| 1777843795 | 24.44° C | 24% | 1017 hPa | 0 mm | - | - | - |
| 1777843492 | 25° C | 24% | 1016.9 hPa | 0 mm | - | - | - |
| 1777843189 | 25° C | 24% | 1017.3 hPa | 0 mm | - | - | - |
| 1777842887 | 24.44° C | 25% | 1017.3 hPa | 0 mm | - | - | - |
| 1777842582 | 24.44° C | 24% | 1017.4 hPa | 0 mm | - | - | - |
| 1777842279 | 24.44° C | 23% | 1017.5 hPa | 0 mm | - | - | - |
| 1777841974 | 23.89° C | 25% | 1017.5 hPa | 0 mm | - | - | - |
| 1777841671 | 23.89° C | 24% | 1017.8 hPa | 0 mm | - | - | - |
| 1777841367 | 23.33° C | 25% | 1017.8 hPa | 0 mm | - | - | - |
| 1777841065 | 23.33° C | 27% | 1018.3 hPa | 0 mm | - | - | - |
| 1777840761 | 22.78° C | 26% | 1018.2 hPa | 0 mm | - | - | - |
| 1777840459 | 22.22° C | 26% | 1018.5 hPa | 0 mm | - | - | - |
| 1777840155 | 22.22° C | 26% | 1018.5 hPa | 0 mm | - | - | - |
| 1777839854 | 22.22° C | 26% | 1018.9 hPa | 0 mm | - | - | - |
| 1777839552 | 21.67° C | 26% | 1019 hPa | 0 mm | - | - | - |
| 1777839249 | 22.22° C | 25% | 1018.8 hPa | 0 mm | - | - | - |
| 1777838946 | 21.67° C | 27% | 1018.9 hPa | 0 mm | - | - | - |
* Rain latest hour (hover to see other rain measurements)
** Current wind speed in m/s (hover to see current wind gust speed)